Location: Boursonne
(49.2024°N, 3.0468°E)
Time: 19:21:00
(UTC+00:00)

Cosmos 1500 - Pass Details

Date: 03 March 2021
Orbit: 499 x 517 km, 82.5° (Epoch: 14 April)

Event Time Altitude Azimuth Distance (km) Brightness Sun altitude
Rises 18:47:36 0° 182° (S) 2,580 6.7 -12.8°
Reaches altitude 10° 18:49:43 10° 179° (S) 1,701 5.8 -13.1°
Maximum altitude 18:53:24 67° 97° (E) 547 3.0 -13.7°
Drops below altitude 10° 18:57:08 10° 15° (NNE) 1,717 5.8 -14.3°
Sets 18:59:16 0° 13° (NNE) 2,607 6.7 -14.6°
